Weather observations for the past three days for
Lexington Blue Grass Airport
Imperial (Metric)
Date Time (edt) Wind (mph) Vis. (mi.) Weather Sky Cond. Temperature (ºF) Relative Humidity Wind Chill (°F) Heat Index (°F) Pressure Precipitation (in)
Air Dwpt 6 hour altimeter (in) sea level (mb) 1 hr 3 hr 6 hr
Max. Min.
03 02:54 SE 5 10.00 Fair CLR 75.9 69.1 79% 77 30.05 1016.4
03 01:54 S 5 10.00 Fair CLR 77 69.1 87.1 75 77% 79 30.06 1016.6
03 00:54 S 3 10.00 Fair CLR 75.9 70 82% 77 30.06 1016.6
02 23:54 S 6 10.00 Fair CLR 79 69.1 72% 82 30.05 1016.4
02 22:54 SE 5 10.00 Fair CLR 78.1 71.1 79% 80 30.06 1016.8
02 21:54 S 3 10.00 Fair CLR 80.1 71.1 74% 84 30.06 1016.8
02 20:54 Calm 10.00 Fair CLR 82 72 72% 87 30.05 1016.5
02 19:54 Calm 10.00 Fair CLR 88 69.1 95 88 54% 92 30.05 1016.3
02 18:54 SW 5 10.00 Fair CLR 91.9 68 46% 96 30.05 1016.5
02 17:54 SW 7 10.00 Fair CLR 93 66 41% 96 30.06 1016.7
02 16:54 SW 8 10.00 Fair CLR 93.9 66 40% 97 30.06 1016.9
02 15:54 SW 8 10.00 Fair CLR 93.9 66.9 41% 98 30.08 1017.3
02 14:54 SW 10 10.00 A Few Clouds FEW055 93.9 69.1 44% 99 30.1 1017.9
02 13:54 SW 10 10.00 A Few Clouds FEW050 93.9 70 93.9 73.9 46% 100 30.11 1018.2
02 12:54 W 8 10.00 Fair CLR 91.9 70 49% 98 30.13 1019.0
02 11:54 NW 6 10.00 Fair CLR 91 71.1 52% 98 30.14 1019.5
02 10:54 Vrbl 3 10.00 Fair CLR 88 72 59% 95 30.14 1019.3
02 09:54 W 3 10.00 Fair CLR 82.9 72 70% 88 30.14 1019.4
02 08:54 SW 6 10.00 Fair CLR 79 70 74% 82 30.13 1019.2
02 07:54 S 5 10.00 Fair CLR 73.9 69.1 75 71.1 85% 30.12 1018.7
02 06:54 S 6 10.00 Fair CLR 72 68 87% 30.1 1018.2
02 05:54 S 5 10.00 Fair CLR 72 69.1 91% 30.1 1018.0
02 04:54 S 6 10.00 Fair CLR 73 69.1 87% 30.09 1017.8
02 03:54 S 6 10.00 Fair CLR 73.9 70 88% 30.08 1017.5
02 02:54 S 7 10.00 Fair CLR 75 70 84% 75 30.08 1017.5
02 01:54 SE 5 10.00 Fair CLR 75 70 87.1 73 84% 75 30.09 1017.7
02 00:54 S 3 10.00 Fair CLR 75 70 84% 75 30.08 1017.6
01 23:54 S 3 10.00 Fair CLR 77 70 79% 79 30.09 1017.6
01 22:54 S 5 10.00 Fair CLR 77 71.1 82% 79 30.09 1017.7
01 21:54 S 3 10.00 Fair CLR 78.1 72 82% 80 30.08 1017.7
01 20:54 Calm 10.00 Fair CLR 84 70 63% 88 30.07 1017.1
01 19:54 Calm 10.00 Fair CLR 87.1 69.1 93 87.1 55% 91 30.07 1017.2
01 18:54 SW 5 10.00 Fair CLR 91 69.1 49% 96 30.08 1017.3
01 17:54 Vrbl 3 10.00 A Few Clouds FEW055 91.9 68 46% 96 30.07 1017.2
01 16:54 SW 9 10.00 Fair CLR 93 68 44% 97 30.08 1017.3
01 15:54 Vrbl 7 10.00 Partly Cloudy SCT050 91.9 69.1 47% 97 30.09 1017.9
01 14:54 Vrbl 7 10.00 Partly Cloudy SCT049 91.9 69.1 47% 97 30.11 1018.5
01 13:54 W 10 10.00 A Few Clouds FEW045 90 70 91.9 72 52% 95 30.13 1019.0
01 12:54 Vrbl 6 10.00 A Few Clouds FEW044 90 70 52% 95 30.14 1019.3
01 11:54 W 7 10.00 Fair CLR 88 71.1 57% 94 30.15 1019.6
01 10:54 SW 9 10.00 Fair CLR 86 71.1 61% 92 30.15 1019.7
01 09:54 W 5 10.00 Fair CLR 82 71.1 69% 86 30.15 1019.9
01 08:54 SW 3 10.00 Fair CLR 78.1 70 76% 80 30.15 1020.0
01 07:54 S 5 10.00 Fair CLR 72 69.1 75 71.1 91% 30.14 1019.7
01 06:54 S 3 10.00 Fair CLR 71.1 68 90% 30.12 1019.0
01 05:54 S 3 10.00 Fair CLR 72 69.1 91% 30.11 1018.3
01 04:54 S 3 10.00 Fair CLR 73 68 84% 30.09 1017.6
01 03:54 S 6 10.00 Fair CLR 73 69.1 87% 30.08 1017.3
01 02:54 S 6 10.00 Fair CLR 73.9 69.1 85% 30.09 1017.6
01 00:54 S 5 10.00 Fair CLR 73 69.1 87% 30.11 1018.5
31 23:54 SE 3 10.00 Fair CLR 75.9 69.1 79% 77 30.11 1018.4
31 22:54 SE 5 10.00 Fair CLR 78.1 70 76% 80 30.11 1018.3
31 21:54 S 5 10.00 Fair CLR 78.1 70 76% 80 30.1 1018.2
31 20:54 S 5 10.00 Fair CLR 79 71.1 77% 82 30.07 1017.3
31 18:54 SW 3 10.00 Fair CLR 89.1 68 50% 93 30.08 1017.5
31 17:54 SW 8 10.00 Fair CLR 91 68 47% 95 30.09 1017.9
31 16:54 SW 6 10.00 A Few Clouds FEW055 91 68 47% 95 30.1 1018.2
31 14:54 SW 10 10.00 Fair CLR 91 69.1 49% 96 30.14 1019.5
31 13:54 W 9 10.00 A Few Clouds FEW046 91 70 91 72 50% 97 30.15 1019.9
31 12:54 W 9 10.00 Fair CLR 89.1 71.1 55% 95 30.16 1020.2
31 11:54 SW 10 10.00 Fair CLR 87.1 71.1 59% 93 30.17 1020.4
31 10:54 W 8 10.00 Fair CLR 84.9 72 65% 91 30.17 1020.6
31 09:54 SW 6 10.00 Fair CLR 80.1 71.1 74% 84 30.16 1020.2
31 08:54 SW 7 10.00 Fair CLR 77 69.1 77% 79 30.16 1020.2
31 07:54 S 6 10.00 Fair CLR 72 68 73.9 71.1 87% 30.14 1019.6
31 06:54 Calm 10.00 Fair CLR 73 68 84% 30.12 1018.8
31 05:54 S 5 10.00 Fair CLR 73 66.9 81% 30.11 1018.4
31 04:54 S 6 10.00 Fair CLR 73 68 84% 30.1 1018.1
31 03:54 S 6 10.00 Fair CLR 72 68 87% 30.1 1018.0
Date Time (edt) Wind (mph) Vis. (mi.) Weather Sky Cond. Air Dwpt Max. Min. Relative Humidity Wind Chill (°F) Heat Index (°F) altimeter (in) sea level (mb) 1 hr 3 hr 6 hr
6 hour
Temperature (ºF) Pressure Precipitation (in)